Time,TemperatureF,DewpointF,PressureIn,WindDirection,WindDirectionDegrees,WindSpeedMPH,WindSpeedGustMPH,Humidity,HourlyPrecipIn,Conditions,Clouds,dailyrainin,SolarRadiationWatts/m^2,SoftwareType,DateUTC
2013-08-01 00:00:00,69.6,64.9,30.02,WSW,257,0.0,9.0,85,0.00,,CLR,0.00,0.00,VWS V14.01,2013-08-01 04:00:00,
2013-08-01 00:01:00,69.6,64.9,30.02,WSW,257,0.0,9.0,85,0.00,,CLR,0.00,0.00,VWS V14.01,2013-08-01 04:01:00,
2013-08-01 00:02:00,69.6,64.6,30.02,WSW,256,0.0,0.0,84,0.00,,CLR,0.00,0.00,VWS V14.01,2013-08-01 04:02:00,
2013-08-01 00:07:00,69.5,64.8,30.02,WSW,257,0.0,4.0,85,0.00,,CLR,0.00,0.00,VWS V14.01,2013-08-01 04:07:00,
2013-08-01 00:12:00,69.5,64.8,30.02,West,259,0.0,0.0,85,0.00,,CLR,0.00,0.00,VWS V14.01,2013-08-01 04:12:00,
2013-08-01 00:17:00,69.5,64.8,30.02,WNW,287,1.0,9.0,85,0.00,,CLR,0.00,0.00,VWS V14.01,2013-08-01 04:17:00,
2013-08-01 00:22:00,69.6,64.9,30.02,West,277,0.0,2.0,85,0.00,,CLR,0.00,0.00,VWS V14.01,2013-08-01 04:22:00,
2013-08-01 00:27:00,69.6,64.9,30.02,WSW,254,0.0,0.0,85,0.00,,CLR,0.00,0.00,VWS V14.01,2013-08-01 04:27:00,
2013-08-01 00:32:00,69.7,65.0,30.02,West,272,0.0,0.0,85,0.00,,CLR,0.00,0.00,VWS V14.01,2013-08-01 04:32:00,
2013-08-01 00:37:00,69.7,65.0,30.02,West,265,0.0,0.0,85,0.00,,CLR,0.00,0.00,VWS V14.01,2013-08-01 04:37:00,
2013-08-01 00:42:00,69.7,65.0,30.02,West,266,0.0,0.0,85,0.00,,CLR,0.00,0.00,VWS V14.01,2013-08-01 04:42:00,
2013-08-01 00:47:00,69.7,65.3,30.02,West,266,0.0,3.0,86,0.00,,CLR,0.00,0.00,VWS V14.01,2013-08-01 04:47:00,
2013-08-01 00:52:00,69.7,65.3,30.02,West,266,0.0,0.0,86,0.00,,CLR,0.00,0.00,VWS V14.01,2013-08-01 04:52:00,
2013-08-01 00:57:00,69.6,65.2,30.02,West,266,0.0,0.0,86,0.00,,CLR,0.00,0.00,VWS V14.01,2013-08-01 04:57:00,
2013-08-01 01:02:00,69.6,65.2,30.01,West,267,0.0,0.0,86,0.00,,CLR,0.00,0.00,VWS V14.01,2013-08-01 05:02:00,
2013-08-01 01:07:00,69.5,65.1,30.02,West,265,0.0,0.0,86,0.00,,CLR,0.00,0.00,VWS V14.01,2013-08-01 05:07:00,
2013-08-01 01:12:00,69.4,65.0,30.01,West,268,0.0,0.0,86,0.00,,CLR,0.00,0.00,VWS V14.01,2013-08-01 05:12:00,
2013-08-01 01:17:00,69.4,65.0,30.01,West,268,0.0,0.0,86,0.00,,CLR,0.00,0.00,VWS V14.01,2013-08-01 05:17:00,
2013-08-01 01:22:00,69.2,64.5,30.01,West,269,0.0,0.0,85,0.00,,CLR,0.00,0.00,VWS V14.01,2013-08-01 05:22:00,
2013-08-01 01:27:00,69.0,64.3,30.02,West,268,0.0,0.0,85,0.00,,CLR,0.00,0.00,VWS V14.01,2013-08-01 05:27:00,
2013-08-01 01:32:00,68.6,64.2,30.01,West,269,0.0,0.0,86,0.00,,CLR,0.00,0.00,VWS V14.01,2013-08-01 05:32:00,
2013-08-01 01:37:00,68.1,64.1,30.01,West,269,0.0,0.0,87,0.00,,CLR,0.00,0.00,VWS V14.01,2013-08-01 05:37:00,
2013-08-01 01:42:00,68.3,64.3,30.01,West,275,0.0,0.0,87,0.00,,CLR,0.00,0.00,VWS V14.01,2013-08-01 05:42:00,
2013-08-01 01:47:00,68.6,64.2,30.01,West,275,0.0,0.0,86,0.00,,CLR,0.00,0.00,VWS V14.01,2013-08-01 05:47:00,
2013-08-01 01:52:00,68.7,64.3,30.01,West,275,0.0,0.0,86,0.00,,CLR,0.00,0.00,VWS V14.01,2013-08-01 05:52:00,
2013-08-01 01:57:00,68.5,64.2,30.01,West,275,0.0,0.0,86,0.00,,CLR,0.00,0.00,VWS V14.01,2013-08-01 05:57:00,
2013-08-01 02:02:00,68.5,64.2,30.00,West,275,0.0,0.0,86,0.00,,CLR,0.00,0.00,VWS V14.01,2013-08-01 06:02:00,
2013-08-01 02:07:00,68.4,64.4,30.00,West,275,0.0,0.0,87,0.00,,CLR,0.00,0.00,VWS V14.01,2013-08-01 06:07:00,
2013-08-01 02:12:00,68.4,64.4,30.00,West,275,0.0,0.0,87,0.00,,CLR,0.00,0.00,VWS V14.01,2013-08-01 06:12:00,
2013-08-01 02:17:00,68.4,64.4,30.00,West,275,0.0,0.0,87,0.00,,CLR,0.00,0.00,VWS V14.01,2013-08-01 06:17:00,
2013-08-01 02:22:00,68.3,64.3,30.00,West,275,0.0,0.0,87,0.00,,CLR,0.00,0.00,VWS V14.01,2013-08-01 06:22:00,
2013-08-01 02:27:00,68.4,64.4,30.00,West,275,0.0,0.0,87,0.00,,CLR,0.00,0.00,VWS V14.01,2013-08-01 06:27:00,
2013-08-01 02:32:00,68.5,64.2,30.00,West,275,0.0,0.0,86,0.00,,CLR,0.00,0.00,VWS V14.01,2013-08-01 06:32:00,
2013-08-01 02:37:00,68.4,64.1,29.99,West,275,0.0,0.0,86,0.00,,CLR,0.00,0.00,VWS V14.01,2013-08-01 06:37:00,
2013-08-01 02:38:00,68.4,64.1,29.99,West,275,0.0,0.0,86,0.00,,CLR,0.00,0.00,VWS V14.01,2013-08-01 06:38:00,
2013-08-01 02:43:00,68.3,64.0,29.99,West,275,0.0,0.0,86,0.00,,CLR,0.00,0.00,VWS V14.01,2013-08-01 06:43:00,
2013-08-01 02:47:00,68.5,64.2,29.99,West,275,0.0,0.0,86,0.00,,CLR,0.00,0.00,VWS V14.01,2013-08-01 06:47:00,
2013-08-01 02:52:00,68.3,63.6,29.99,West,275,0.0,0.0,85,0.00,,CLR,0.00,0.00,VWS V14.01,2013-08-01 06:52:00,
2013-08-01 02:57:00,68.4,63.7,29.99,West,275,0.0,0.0,85,0.00,,CLR,0.00,0.00,VWS V14.01,2013-08-01 06:57:00,
2013-08-01 03:02:00,68.1,63.4,29.98,West,275,0.0,0.0,85,0.00,,CLR,0.00,0.00,VWS V14.01,2013-08-01 07:02:00,
2013-08-01 03:07:00,68.1,63.8,29.99,West,275,0.0,0.0,86,0.00,,CLR,0.00,0.00,VWS V14.01,2013-08-01 07:07:00,
2013-08-01 03:12:00,68.2,63.9,29.98,West,275,0.0,0.0,86,0.00,,CLR,0.00,0.00,VWS V14.01,2013-08-01 07:12:00,
2013-08-01 03:17:00,68.3,63.6,29.99,West,275,0.0,0.0,85,0.00,,CLR,0.00,0.00,VWS V14.01,2013-08-01 07:17:00,
2013-08-01 03:22:00,68.0,63.7,29.98,West,275,0.0,0.0,86,0.00,,CLR,0.00,0.00,VWS V14.01,2013-08-01 07:22:00,
2013-08-01 03:27:00,68.0,63.7,29.98,West,275,0.0,0.0,86,0.00,,CLR,0.00,0.00,VWS V14.01,2013-08-01 07:27:00,
2013-08-01 03:32:00,68.0,64.0,29.98,West,275,0.0,0.0,87,0.00,,CLR,0.00,0.00,VWS V14.01,2013-08-01 07:32:00,
2013-08-01 03:38:00,68.0,63.7,29.98,West,275,0.0,0.0,86,0.00,,CLR,0.00,0.00,VWS V14.01,2013-08-01 07:38:00,
2013-08-01 03:42:00,68.0,64.0,29.98,West,275,0.0,0.0,87,0.00,,CLR,0.00,0.00,VWS V14.01,2013-08-01 07:42:00,
2013-08-01 03:48:00,68.2,64.2,29.98,West,275,0.0,0.0,87,0.00,,CLR,0.00,0.00,VWS V14.01,2013-08-01 07:48:00,
2013-08-01 03:53:00,68.5,64.2,29.97,West,275,0.0,0.0,86,0.00,,CLR,0.00,0.00,VWS V14.01,2013-08-01 07:53:00,
2013-08-01 03:58:00,68.4,64.4,29.98,West,274,0.0,1.0,87,0.00,,CLR,0.00,0.00,VWS V14.01,2013-08-01 07:58:00,
2013-08-01 04:03:00,68.3,64.9,29.97,West,270,0.0,0.0,89,0.00,,CLR,0.00,0.00,VWS V14.01,2013-08-01 08:03:00,
2013-08-01 04:08:00,68.4,65.4,29.97,West,269,0.0,1.0,90,0.00,,CLR,0.00,0.00,VWS V14.01,2013-08-01 08:08:00,
2013-08-01 04:13:00,68.5,65.5,29.97,West,269,0.0,0.0,90,0.00,,CLR,0.00,0.00,VWS V14.01,2013-08-01 08:13:00,
2013-08-01 04:19:00,68.6,65.9,29.97,West,269,0.0,0.0,91,0.00,,CLR,0.00,0.00,VWS V14.01,2013-08-01 08:19:00,
2013-08-01 04:24:00,68.6,65.9,29.97,West,268,0.0,0.0,91,0.00,,CLR,0.00,0.00,VWS V14.01,2013-08-01 08:24:00,
2013-08-01 04:29:00,68.5,65.8,29.97,West,268,0.0,0.0,91,0.00,,CLR,0.00,0.00,VWS V14.01,2013-08-01 08:29:00,
2013-08-01 04:34:00,68.6,65.9,29.97,West,268,0.0,1.0,91,0.00,,CLR,0.00,0.00,VWS V14.01,2013-08-01 08:34:00,
2013-08-01 04:39:00,68.7,66.3,29.97,WSW,257,0.0,2.0,92,0.00,,CLR,0.00,0.00,VWS V14.01,2013-08-01 08:39:00,
2013-08-01 04:44:00,68.6,65.9,29.97,WSW,257,0.0,0.0,91,0.00,,CLR,0.00,0.00,VWS V14.01,2013-08-01 08:44:00,
2013-08-01 04:50:00,68.6,65.9,29.97,WSW,257,0.0,1.0,91,0.00,,CLR,0.00,0.00,VWS V14.01,2013-08-01 08:50:00,
2013-08-01 04:55:00,68.6,65.9,29.97,WSW,255,0.0,1.0,91,0.00,,CLR,0.00,0.00,VWS V14.01,2013-08-01 08:55:00,
2013-08-01 05:00:00,68.5,65.8,29.97,WSW,255,0.0,0.0,91,0.00,,CLR,0.00,0.00,VWS V14.01,2013-08-01 09:00:00,
2013-08-01 05:05:00,68.5,65.8,29.97,WSW,254,0.0,0.0,91,0.00,,CLR,0.00,0.00,VWS V14.01,2013-08-01 09:05:00,
2013-08-01 05:10:00,68.4,65.7,29.97,SW,225,0.0,3.0,91,0.00,,CLR,0.00,0.00,VWS V14.01,2013-08-01 09:10:00,
2013-08-01 05:16:00,68.5,65.8,29.97,SW,227,0.0,3.0,91,0.00,,CLR,0.00,0.00,VWS V14.01,2013-08-01 09:16:00,
2013-08-01 05:21:00,68.6,65.6,29.96,SW,227,0.0,0.0,90,0.00,,CLR,0.00,0.00,VWS V14.01,2013-08-01 09:21:00,
2013-08-01 05:26:00,68.5,65.5,29.97,SW,227,0.0,2.0,90,0.00,,CLR,0.00,0.00,VWS V14.01,2013-08-01 09:26:00,
2013-08-01 05:33:00,68.6,65.6,29.97,SW,227,0.0,0.0,90,0.00,,CLR,0.00,0.00,VWS V14.01,2013-08-01 09:33:00,
2013-08-01 05:38:00,68.6,65.6,29.97,SW,227,0.0,0.0,90,0.00,,CLR,0.00,0.00,VWS V14.01,2013-08-01 09:38:00,
2013-08-01 05:44:00,68.5,65.8,29.97,SW,227,0.0,0.0,91,0.00,,CLR,0.00,0.00,VWS V14.01,2013-08-01 09:44:00,
2013-08-01 05:50:00,68.6,65.9,29.97,SW,227,0.0,1.0,91,0.00,,CLR,0.00,0.00,VWS V14.01,2013-08-01 09:50:00,
2013-08-01 05:55:00,68.7,66.0,29.97,SW,227,0.0,0.0,91,0.00,,CLR,0.00,5.00,VWS V14.01,2013-08-01 09:55:00,
2013-08-01 06:00:00,68.7,66.0,29.97,SW,227,0.0,2.0,91,0.00,,CLR,0.00,16.00,VWS V14.01,2013-08-01 10:00:00,
2013-08-01 06:06:00,68.8,66.1,29.97,SW,232,0.0,3.0,91,0.00,,CLR,0.00,19.00,VWS V14.01,2013-08-01 10:06:00,
2013-08-01 06:11:00,69.0,66.3,29.97,SW,231,0.0,1.0,91,0.00,,CLR,0.00,23.00,VWS V14.01,2013-08-01 10:11:00,
2013-08-01 06:16:00,69.1,66.4,29.97,SW,224,0.0,2.0,91,0.00,,CLR,0.00,33.00,VWS V14.01,2013-08-01 10:16:00,
2013-08-01 06:22:00,69.3,66.6,29.97,SW,233,0.0,0.0,91,0.00,,CLR,0.00,51.00,VWS V14.01,2013-08-01 10:22:00,
2013-08-01 06:27:00,69.5,66.8,29.97,SW,233,0.0,1.0,91,0.00,,CLR,0.00,60.00,VWS V14.01,2013-08-01 10:27:00,
2013-08-01 06:32:00,69.9,67.2,29.97,WSW,240,0.0,2.0,91,0.00,,CLR,0.00,72.00,VWS V14.01,2013-08-01 10:32:00,
2013-08-01 06:38:00,70.3,66.9,29.97,SW,232,0.0,5.0,89,0.00,,CLR,0.00,63.00,VWS V14.01,2013-08-01 10:38:00,
2013-08-01 06:43:00,70.4,66.7,29.97,SW,219,0.0,2.0,88,0.00,,CLR,0.00,42.00,VWS V14.01,2013-08-01 10:43:00,
2013-08-01 06:48:00,70.0,66.3,29.97,SW,226,0.0,0.0,88,0.00,,CLR,0.00,44.00,VWS V14.01,2013-08-01 10:48:00,
2013-08-01 06:53:00,69.7,66.3,29.97,SW,224,0.0,2.0,89,0.00,,CLR,0.00,46.00,VWS V14.01,2013-08-01 10:53:00,
2013-08-01 06:58:00,69.6,66.2,29.97,WSW,240,0.0,1.0,89,0.00,,CLR,0.00,47.00,VWS V14.01,2013-08-01 10:58:00,
2013-08-01 07:03:00,69.6,66.5,29.97,SW,226,0.0,3.0,90,0.00,,,0.00,53.00,VWS V14.01,2013-08-01 11:03:00,
2013-08-01 07:09:00,69.9,66.5,29.97,SW,223,0.0,5.0,89,0.00,,,0.00,144.00,VWS V14.01,2013-08-01 11:09:00,
2013-08-01 07:14:00,70.8,67.4,29.97,SW,225,0.0,3.0,89,0.00,,,0.00,84.00,VWS V14.01,2013-08-01 11:14:00,
2013-08-01 07:19:00,71.2,67.1,29.96,SW,217,0.0,4.0,87,0.00,,,0.00,97.00,VWS V14.01,2013-08-01 11:19:00,
2013-08-01 07:25:00,71.1,67.4,29.97,SW,229,0.0,5.0,88,0.00,,,0.00,105.00,VWS V14.01,2013-08-01 11:25:00,
2013-08-01 07:30:00,71.0,67.3,29.97,SW,221,0.0,4.0,88,0.00,,,0.00,102.00,VWS V14.01,2013-08-01 11:30:00,
2013-08-01 07:35:00,70.9,66.8,29.97,SW,227,0.0,6.0,87,0.00,,,0.00,100.00,VWS V14.01,2013-08-01 11:35:00,
2013-08-01 07:40:00,71.0,66.9,29.97,SW,222,0.0,3.0,87,0.00,,,0.00,102.00,VWS V14.01,2013-08-01 11:40:00,
2013-08-01 07:45:00,71.1,67.4,29.97,SW,225,0.0,3.0,88,0.00,,,0.00,118.00,VWS V14.01,2013-08-01 11:45:00,
2013-08-01 07:51:00,71.8,68.1,29.97,SW,230,1.0,1.0,88,0.00,,,0.00,329.00,VWS V14.01,2013-08-01 11:51:00,
2013-08-01 07:57:00,73.5,68.4,29.97,SW,214,1.0,3.0,84,0.00,,,0.00,309.00,VWS V14.01,2013-08-01 11:57:00,
2013-08-01 08:02:00,74.4,68.9,29.97,SW,225,0.0,4.0,83,0.00,,CLR,0.00,348.00,VWS V14.01,2013-08-01 12:02:00,
2013-08-01 08:07:00,75.3,69.4,29.97,SW,218,0.0,2.0,82,0.00,,CLR,0.00,357.00,VWS V14.01,2013-08-01 12:07:00,
2013-08-01 08:12:00,75.5,69.3,29.97,SW,226,0.0,4.0,81,0.00,,CLR,0.00,378.00,VWS V14.01,2013-08-01 12:12:00,
2013-08-01 08:17:00,75.3,68.7,29.97,WSW,242,3.0,5.0,80,0.00,,CLR,0.00,420.00,VWS V14.01,2013-08-01 12:17:00,
2013-08-01 08:22:00,75.3,68.7,29.97,SW,222,2.0,6.0,80,0.00,,CLR,0.00,459.00,VWS V14.01,2013-08-01 12:22:00,
2013-08-01 08:27:00,75.6,69.0,29.97,SW,219,1.0,5.0,80,0.00,,CLR,0.00,348.00,VWS V14.01,2013-08-01 12:27:00,
2013-08-01 08:34:00,75.5,67.8,29.97,SW,226,0.0,5.0,77,0.00,,CLR,0.00,274.00,VWS V14.01,2013-08-01 12:34:00,
2013-08-01 08:39:00,74.8,67.9,29.97,SW,219,5.0,6.0,79,0.00,,CLR,0.00,248.00,VWS V14.01,2013-08-01 12:39:00,
2013-08-01 08:44:00,75.8,68.8,29.96,SW,223,0.0,3.0,79,0.00,,CLR,0.00,450.00,VWS V14.01,2013-08-01 12:44:00,
2013-08-01 08:49:00,76.8,69.1,29.96,SW,221,2.0,5.0,77,0.00,,CLR,0.00,462.00,VWS V14.01,2013-08-01 12:49:00,
2013-08-01 08:54:00,77.0,68.9,29.96,West,276,7.0,8.0,76,0.00,,CLR,0.00,483.00,VWS V14.01,2013-08-01 12:54:00,
2013-08-01 09:00:00,77.1,68.6,29.96,SW,222,4.0,8.0,75,0.00,,CLR,0.00,492.00,VWS V14.01,2013-08-01 13:00:00,
2013-08-01 09:06:00,77.4,68.9,29.96,SW,222,1.0,1.0,75,0.00,,CLR,0.00,497.00,VWS V14.01,2013-08-01 13:06:00,
2013-08-01 09:11:00,77.4,68.1,29.96,SSW,211,0.0,4.0,73,0.00,,CLR,0.00,519.00,VWS V14.01,2013-08-01 13:11:00,
2013-08-01 09:16:00,78.0,68.7,29.96,SW,223,0.0,4.0,73,0.00,,CLR,0.00,545.00,VWS V14.01,2013-08-01 13:16:00,
2013-08-01 09:22:00,79.1,68.9,29.96,WSW,243,0.0,7.0,71,0.00,,CLR,0.00,559.00,VWS V14.01,2013-08-01 13:22:00,
2013-08-01 09:27:00,78.9,68.3,29.95,WSW,248,5.0,5.0,70,0.00,,CLR,0.00,573.00,VWS V14.01,2013-08-01 13:27:00,
2013-08-01 09:33:00,78.6,68.4,29.95,SW,234,1.0,6.0,71,0.00,,CLR,0.00,589.00,VWS V14.01,2013-08-01 13:33:00,
2013-08-01 09:38:00,78.5,67.9,29.95,SSW,213,2.0,7.0,70,0.00,,CLR,0.00,594.00,VWS V14.01,2013-08-01 13:38:00,
2013-08-01 09:43:00,77.8,67.7,29.95,SW,232,8.0,8.0,71,0.00,,CLR,0.00,612.00,VWS V14.01,2013-08-01 13:43:00,
2013-08-01 09:48:00,78.0,67.8,29.95,SSW,196,5.0,8.0,71,0.00,,CLR,0.00,629.00,VWS V14.01,2013-08-01 13:48:00,
2013-08-01 09:53:00,77.9,68.2,29.95,SW,223,3.0,10.0,72,0.00,,CLR,0.00,640.00,VWS V14.01,2013-08-01 13:53:00,
2013-08-01 09:58:00,78.2,67.6,29.95,WSW,241,3.0,8.0,70,0.00,,CLR,0.00,687.00,VWS V14.01,2013-08-01 13:58:00,
2013-08-01 10:03:00,78.2,67.6,29.95,SW,230,3.0,8.0,70,0.00,,CLR,0.00,807.00,VWS V14.01,2013-08-01 14:03:00,
2013-08-01 10:08:00,78.1,67.5,29.95,WSW,237,7.0,12.0,70,0.00,,CLR,0.00,596.00,VWS V14.01,2013-08-01 14:08:00,
2013-08-01 10:14:00,77.3,68.0,29.94,SW,219,2.0,8.0,73,0.00,,CLR,0.00,418.00,VWS V14.01,2013-08-01 14:14:00,
2013-08-01 10:19:00,76.7,67.8,29.94,SW,230,5.0,10.0,74,0.00,,CLR,0.00,424.00,VWS V14.01,2013-08-01 14:19:00,
2013-08-01 10:25:00,76.4,67.1,29.94,SW,229,0.0,8.0,73,0.00,,CLR,0.00,464.00,VWS V14.01,2013-08-01 14:25:00,
2013-08-01 10:30:00,76.6,66.9,29.94,SW,221,1.0,9.0,72,0.00,,CLR,0.00,478.00,VWS V14.01,2013-08-01 14:30:00,
2013-08-01 10:35:00,77.3,67.6,29.94,WSW,250,4.0,8.0,72,0.00,,CLR,0.00,954.00,VWS V14.01,2013-08-01 14:35:00,
2013-08-01 10:41:00,79.4,67.5,29.94,SW,233,7.0,7.0,67,0.00,,CLR,0.00,990.00,VWS V14.01,2013-08-01 14:41:00,
2013-08-01 10:46:00,79.9,68.0,29.94,SW,230,0.0,6.0,67,0.00,,CLR,0.00,856.00,VWS V14.01,2013-08-01 14:46:00,
2013-08-01 10:51:00,79.8,67.9,29.94,SW,217,6.0,9.0,67,0.00,,CLR,0.00,817.00,VWS V14.01,2013-08-01 14:51:00,
2013-08-01 10:57:00,79.9,68.8,29.94,SW,218,2.0,5.0,69,0.00,,CLR,0.00,696.00,VWS V14.01,2013-08-01 14:57:00,
2013-08-01 11:04:00,79.7,68.2,29.94,WSW,246,7.0,10.0,68,0.00,,FEW075,0.00,800.00,VWS V14.01,2013-08-01 15:04:00,
2013-08-01 11:09:00,79.8,67.4,29.94,SW,231,0.0,12.0,66,0.00,,FEW075,0.00,828.00,VWS V14.01,2013-08-01 15:09:00,
2013-08-01 11:14:00,80.3,67.5,29.94,SW,235,9.0,11.0,65,0.00,,FEW075,0.00,838.00,VWS V14.01,2013-08-01 15:14:00,
2013-08-01 11:19:00,80.0,66.7,29.94,SW,221,6.0,10.0,64,0.00,,FEW075,0.00,837.00,VWS V14.01,2013-08-01 15:19:00,
2013-08-01 11:24:00,80.7,67.4,29.94,West,259,4.0,10.0,64,0.00,,FEW075,0.00,974.00,VWS V14.01,2013-08-01 15:24:00,
2013-08-01 11:29:00,79.6,66.4,29.93,SW,224,2.0,10.0,64,0.00,,FEW075,0.00,346.00,VWS V14.01,2013-08-01 15:29:00,
2013-08-01 11:34:00,79.6,66.8,29.93,SW,223,2.0,10.0,65,0.00,,FEW075,0.00,835.00,VWS V14.01,2013-08-01 15:34:00,
2013-08-01 11:39:00,79.7,66.9,29.93,SW,223,5.0,8.0,65,0.00,,FEW075,0.00,779.00,VWS V14.01,2013-08-01 15:39:00,
2013-08-01 11:44:00,78.8,65.6,29.93,SW,227,6.0,9.0,64,0.00,,FEW075,0.00,469.00,VWS V14.01,2013-08-01 15:44:00,
2013-08-01 11:50:00,79.1,65.9,29.93,SW,225,6.0,8.0,64,0.00,,FEW075,0.00,719.00,VWS V14.01,2013-08-01 15:50:00,
2013-08-01 11:55:00,78.7,65.5,29.93,SW,227,1.0,11.0,64,0.00,,FEW075,0.00,531.00,VWS V14.01,2013-08-01 15:55:00,
2013-08-01 12:00:00,78.3,65.6,29.93,SW,217,0.0,8.0,65,0.00,,FEW075,0.00,610.00,VWS V14.01,2013-08-01 16:00:00,
2013-08-01 12:05:00,78.2,65.5,29.92,SW,222,5.0,12.0,65,0.00,,CLR,0.00,640.00,VWS V14.01,2013-08-01 16:05:00,
2013-08-01 12:10:00,79.3,65.6,29.92,SW,222,1.0,8.0,63,0.00,,CLR,0.00,1132.00,VWS V14.01,2013-08-01 16:10:00,
2013-08-01 12:15:00,80.3,66.1,29.92,SSW,201,5.0,10.0,62,0.00,,CLR,0.00,533.00,VWS V14.01,2013-08-01 16:15:00,
2013-08-01 12:20:00,78.6,65.9,29.93,WSW,244,2.0,10.0,65,0.00,,CLR,0.00,464.00,VWS V14.01,2013-08-01 16:20:00,
2013-08-01 12:27:00,77.3,65.1,29.93,SW,221,7.0,9.0,66,0.00,,CLR,0.00,346.00,VWS V14.01,2013-08-01 16:27:00,
2013-08-01 12:32:00,76.9,65.1,29.93,SW,230,6.0,6.0,67,0.00,,CLR,0.00,397.00,VWS V14.01,2013-08-01 16:32:00,
2013-08-01 12:37:00,76.9,64.2,29.93,SW,218,5.0,8.0,65,0.00,,CLR,0.00,415.00,VWS V14.01,2013-08-01 16:37:00,
2013-08-01 12:42:00,77.4,64.3,29.92,SW,235,2.0,11.0,64,0.00,,CLR,0.00,497.00,VWS V14.01,2013-08-01 16:42:00,
2013-08-01 12:47:00,77.5,64.4,29.92,SW,232,4.0,7.0,64,0.00,,CLR,0.00,387.00,VWS V14.01,2013-08-01 16:47:00,
2013-08-01 12:53:00,77.2,64.5,29.92,SW,221,8.0,12.0,65,0.00,,CLR,0.00,311.00,VWS V14.01,2013-08-01 16:53:00,
2013-08-01 12:58:00,76.8,64.2,29.92,SW,223,0.0,11.0,65,0.00,,CLR,0.00,264.00,VWS V14.01,2013-08-01 16:58:00,
2013-08-01 13:03:00,76.2,64.0,29.92,SW,236,1.0,9.0,66,0.00,,OVC090,0.00,243.00,VWS V14.01,2013-08-01 17:03:00,
2013-08-01 13:08:00,75.8,64.5,29.92,WSW,240,0.0,11.0,68,0.00,,OVC090,0.00,244.00,VWS V14.01,2013-08-01 17:08:00,
2013-08-01 13:13:00,75.4,64.5,29.92,WSW,246,9.0,10.0,69,0.00,,OVC090,0.00,255.00,VWS V14.01,2013-08-01 17:13:00,
2013-08-01 13:18:00,75.1,64.7,29.92,SW,220,4.0,7.0,70,0.00,,OVC090,0.00,283.00,VWS V14.01,2013-08-01 17:18:00,
2013-08-01 13:24:00,74.9,65.7,29.92,WSW,252,2.0,10.0,73,0.00,,OVC090,0.00,255.00,VWS V14.01,2013-08-01 17:24:00,
2013-08-01 13:29:00,74.4,66.0,29.92,SW,233,3.0,12.0,75,0.00,,OVC090,0.00,237.00,VWS V14.01,2013-08-01 17:29:00,
2013-08-01 13:34:00,74.0,65.2,29.92,SW,222,3.0,10.0,74,0.00,,OVC090,0.00,309.00,VWS V14.01,2013-08-01 17:34:00,
2013-08-01 13:39:00,74.3,65.5,29.91,WSW,242,2.0,8.0,74,0.00,,OVC090,0.00,350.00,VWS V14.01,2013-08-01 17:39:00,
2013-08-01 13:45:00,74.9,66.1,29.91,WSW,247,4.0,8.0,74,0.00,,OVC090,0.00,345.00,VWS V14.01,2013-08-01 17:45:00,
2013-08-01 13:50:00,74.7,66.3,29.91,WSW,258,7.0,8.0,75,0.00,,OVC090,0.00,283.00,VWS V14.01,2013-08-01 17:50:00,
2013-08-01 13:55:00,74.6,66.5,29.91,SW,236,1.0,11.0,76,0.00,,OVC090,0.00,225.00,VWS V14.01,2013-08-01 17:55:00,
2013-08-01 14:01:00,74.5,66.1,29.91,SW,234,6.0,9.0,75,0.00,,-RA,0.00,236.00,VWS V14.01,2013-08-01 18:01:00,
2013-08-01 14:06:00,74.1,64.9,29.91,SW,226,6.0,6.0,73,0.00,,-RA,0.00,206.00,VWS V14.01,2013-08-01 18:06:00,
2013-08-01 14:11:00,74.1,65.7,29.91,SW,235,0.0,4.0,75,0.00,,-RA,0.00,236.00,VWS V14.01,2013-08-01 18:11:00,
2013-08-01 14:17:00,73.6,61.1,29.91,SW,227,6.0,11.0,65,0.00,,-RA,0.00,248.00,VWS V14.01,2013-08-01 18:17:00,
2013-08-01 14:22:00,73.5,63.1,29.91,WSW,254,8.0,11.0,70,0.00,,-RA,0.00,199.00,VWS V14.01,2013-08-01 18:22:00,
2013-08-01 14:27:00,73.1,63.5,29.91,SW,232,8.0,8.0,72,0.00,,-RA,0.00,144.00,VWS V14.01,2013-08-01 18:27:00,
2013-08-01 14:33:00,73.0,63.0,29.91,WSW,249,5.0,9.0,71,0.00,,-RA,0.00,142.00,VWS V14.01,2013-08-01 18:33:00,
2013-08-01 14:38:00,72.8,63.7,29.91,WSW,249,2.0,9.0,73,0.00,,-RA,0.00,176.00,VWS V14.01,2013-08-01 18:38:00,
2013-08-01 14:43:00,72.4,64.8,29.91,West,260,8.0,8.0,77,0.00,,-RA,0.00,206.00,VWS V14.01,2013-08-01 18:43:00,
2013-08-01 14:48:00,72.2,65.3,29.91,WSW,242,4.0,9.0,79,0.00,,-RA,0.00,172.00,VWS V14.01,2013-08-01 18:48:00,
2013-08-01 14:53:00,72.2,65.7,29.91,SW,236,1.0,8.0,80,0.00,,-RA,0.00,83.00,VWS V14.01,2013-08-01 18:53:00,
2013-08-01 14:58:00,72.1,66.3,29.92,SW,219,2.0,8.0,82,0.00,,-RA,0.00,58.00,VWS V14.01,2013-08-01 18:58:00,
2013-08-01 15:03:00,71.8,66.4,29.92,SW,231,1.0,7.0,83,0.00,,BKN110,0.00,51.00,VWS V14.01,2013-08-01 19:03:00,
2013-08-01 15:10:00,71.6,66.5,29.92,WSW,250,1.0,7.0,84,0.00,,BKN110,0.00,62.00,VWS V14.01,2013-08-01 19:10:00,
2013-08-01 15:15:00,71.5,66.8,29.92,SW,236,4.0,8.0,85,0.00,,BKN110,0.00,67.00,VWS V14.01,2013-08-01 19:15:00,
2013-08-01 15:20:00,71.5,67.1,29.92,WSW,249,3.0,8.0,86,0.01,,BKN110,0.01,70.00,VWS V14.01,2013-08-01 19:20:00,
2013-08-01 15:25:00,71.6,67.2,29.92,WSW,252,4.0,10.0,86,0.01,,BKN110,0.01,58.00,VWS V14.01,2013-08-01 19:25:00,
2013-08-01 15:30:00,71.4,67.0,29.92,WSW,257,0.0,10.0,86,0.01,,BKN110,0.01,76.00,VWS V14.01,2013-08-01 19:30:00,
2013-08-01 15:36:00,71.0,66.6,29.91,West,261,0.0,12.0,86,0.02,,BKN110,0.02,67.00,VWS V14.01,2013-08-01 19:36:00,
2013-08-01 15:41:00,70.6,66.2,29.92,WSW,256,1.0,10.0,86,0.02,,BKN110,0.02,69.00,VWS V14.01,2013-08-01 19:41:00,
2013-08-01 15:46:00,70.1,65.4,29.91,West,263,1.0,8.0,85,0.02,,BKN110,0.02,67.00,VWS V14.01,2013-08-01 19:46:00,
2013-08-01 15:52:00,69.8,65.1,29.91,WSW,253,0.0,8.0,85,0.02,,BKN110,0.02,70.00,VWS V14.01,2013-08-01 19:52:00,
2013-08-01 15:57:00,69.4,64.4,29.91,WSW,257,0.0,4.0,84,0.03,,BKN110,0.03,58.00,VWS V14.01,2013-08-01 19:57:00,
2013-08-01 16:02:00,69.2,64.8,29.91,WSW,257,0.0,0.0,86,0.04,,-RA,0.04,69.00,VWS V14.01,2013-08-01 20:02:00,
2013-08-01 16:08:00,69.0,65.3,29.91,WSW,248,0.0,2.0,88,0.06,,-RA,0.06,69.00,VWS V14.01,2013-08-01 20:08:00,
2013-08-01 16:14:00,69.0,65.9,29.91,West,275,2.0,7.0,90,0.07,,-RA,0.07,76.00,VWS V14.01,2013-08-01 20:14:00,
2013-08-01 16:19:00,68.9,65.8,29.91,West,267,0.0,0.0,90,0.06,,-RA,0.07,104.00,VWS V14.01,2013-08-01 20:19:00,
2013-08-01 16:24:00,69.0,65.9,29.90,West,267,0.0,6.0,90,0.06,,-RA,0.07,88.00,VWS V14.01,2013-08-01 20:24:00,
2013-08-01 16:29:00,69.2,66.2,29.90,West,267,0.0,1.0,90,0.06,,-RA,0.07,104.00,VWS V14.01,2013-08-01 20:29:00,
2013-08-01 16:34:00,69.4,66.3,29.89,West,265,0.0,2.0,90,0.06,,-RA,0.07,199.00,VWS V14.01,2013-08-01 20:34:00,
2013-08-01 16:40:00,69.9,66.8,29.89,West,263,0.0,1.0,90,0.05,,-RA,0.07,223.00,VWS V14.01,2013-08-01 20:40:00,
2013-08-01 16:41:00,70.0,66.6,29.89,West,261,0.0,0.0,89,0.05,,-RA,0.07,223.00,VWS V14.01,2013-08-01 20:41:00,
2013-08-01 16:46:00,70.4,67.0,29.89,WSW,256,0.0,2.0,89,0.05,,-RA,0.07,232.00,VWS V14.01,2013-08-01 20:46:00,
2013-08-01 16:52:00,70.8,67.4,29.89,WSW,256,0.0,0.0,89,0.05,,-RA,0.07,230.00,VWS V14.01,2013-08-01 20:52:00,
2013-08-01 16:57:00,71.0,67.6,29.90,WSW,256,0.0,3.0,89,0.04,,-RA,0.07,165.00,VWS V14.01,2013-08-01 20:57:00,
2013-08-01 17:01:00,70.3,66.6,29.90,West,274,0.0,0.0,88,0.03,,-RA,0.07,98.00,VWS V14.01,2013-08-01 21:01:00,
2013-08-01 17:07:00,69.7,66.0,29.90,West,277,0.0,0.0,88,0.02,,-RA,0.07,165.00,VWS V14.01,2013-08-01 21:07:00,
2013-08-01 17:12:00,70.0,66.6,29.89,West,277,0.0,0.0,89,0.01,,-RA,0.07,120.00,VWS V14.01,2013-08-01 21:12:00,
2013-08-01 17:17:00,70.2,66.8,29.89,West,277,0.0,0.0,89,0.00,,-RA,0.07,174.00,VWS V14.01,2013-08-01 21:17:00,
2013-08-01 17:22:00,70.5,67.4,29.88,West,277,0.0,0.0,90,0.00,,-RA,0.07,179.00,VWS V14.01,2013-08-01 21:22:00,
2013-08-01 17:28:00,70.6,66.9,29.88,SW,225,0.0,5.0,88,0.00,,-RA,0.07,160.00,VWS V14.01,2013-08-01 21:28:00,
2013-08-01 17:33:00,70.5,65.1,29.88,SW,222,0.0,4.0,83,0.00,,-RA,0.07,135.00,VWS V14.01,2013-08-01 21:33:00,
2013-08-01 17:38:00,70.4,64.3,29.88,SW,223,0.0,5.0,81,0.00,,-RA,0.07,111.00,VWS V14.01,2013-08-01 21:38:00,
2013-08-01 17:43:00,70.3,63.8,29.88,WSW,237,0.0,6.0,80,0.01,,-RA,0.08,91.00,VWS V14.01,2013-08-01 21:43:00,
2013-08-01 17:48:00,70.0,63.5,29.88,SW,223,3.0,5.0,80,0.01,,-RA,0.08,109.00,VWS V14.01,2013-08-01 21:48:00,
2013-08-01 17:53:00,70.1,63.7,29.88,SW,231,4.0,5.0,80,0.01,,-RA,0.08,105.00,VWS V14.01,2013-08-01 21:53:00,
2013-08-01 17:59:00,70.0,63.9,29.88,SW,219,0.0,9.0,81,0.01,,-RA,0.08,113.00,VWS V14.01,2013-08-01 21:59:00,
2013-08-01 18:04:00,70.1,63.7,29.87,SW,218,5.0,9.0,80,0.01,,-RA,0.08,113.00,VWS V14.01,2013-08-01 22:04:00,
2013-08-01 18:09:00,70.0,63.5,29.87,SW,231,1.0,9.0,80,0.01,,-RA,0.08,98.00,VWS V14.01,2013-08-01 22:09:00,
2013-08-01 18:14:00,69.9,63.5,29.88,SW,214,1.0,11.0,80,0.01,,-RA,0.08,74.00,VWS V14.01,2013-08-01 22:14:00,
2013-08-01 18:19:00,69.7,63.3,29.88,SW,232,0.0,8.0,80,0.01,,-RA,0.08,49.00,VWS V14.01,2013-08-01 22:19:00,
2013-08-01 18:24:00,69.6,63.2,29.89,SW,224,0.0,7.0,80,0.01,,-RA,0.08,23.00,VWS V14.01,2013-08-01 22:24:00,
2013-08-01 18:29:00,69.6,63.2,29.89,West,261,2.0,8.0,80,0.01,,-RA,0.08,37.00,VWS V14.01,2013-08-01 22:29:00,
2013-08-01 18:35:00,69.5,63.1,29.89,WSW,249,0.0,7.0,80,0.01,,-RA,0.08,33.00,VWS V14.01,2013-08-01 22:35:00,
2013-08-01 18:40:00,69.5,63.1,29.89,SW,232,2.0,6.0,80,0.01,,-RA,0.08,30.00,VWS V14.01,2013-08-01 22:40:00,
2013-08-01 18:45:00,69.5,63.1,29.89,SW,214,2.0,5.0,80,0.01,,-RA,0.08,33.00,VWS V14.01,2013-08-01 22:45:00,
2013-08-01 18:50:00,69.3,62.9,29.89,SW,227,2.0,7.0,80,0.00,,-RA,0.08,28.00,VWS V14.01,2013-08-01 22:50:00,
2013-08-01 18:55:00,69.2,63.1,29.88,SW,218,5.0,11.0,81,0.00,,-RA,0.08,21.00,VWS V14.01,2013-08-01 22:55:00,
2013-08-01 19:00:00,69.2,63.1,29.88,SW,222,4.0,8.0,81,0.00,,BKN100,0.08,16.00,VWS V14.01,2013-08-01 23:00:00,
2013-08-01 19:06:00,69.2,62.8,29.88,SW,229,5.0,11.0,80,0.00,,BKN100,0.08,12.00,VWS V14.01,2013-08-01 23:06:00,
2013-08-01 19:10:00,68.9,62.5,29.88,SSW,203,2.0,4.0,80,0.00,,BKN100,0.08,12.00,VWS V14.01,2013-08-01 23:10:00,
2013-08-01 19:16:00,68.8,62.7,29.88,SW,231,1.0,9.0,81,0.00,,BKN100,0.08,11.00,VWS V14.01,2013-08-01 23:16:00,
2013-08-01 19:21:00,68.5,62.8,29.88,SW,218,6.0,9.0,82,0.00,,BKN100,0.08,9.00,VWS V14.01,2013-08-01 23:21:00,
2013-08-01 19:26:00,68.1,62.4,29.88,SW,219,2.0,4.0,82,0.00,,BKN100,0.08,7.00,VWS V14.01,2013-08-01 23:26:00,
2013-08-01 19:31:00,67.7,62.4,29.88,SW,214,5.0,8.0,83,0.00,,BKN100,0.08,5.00,VWS V14.01,2013-08-01 23:31:00,
2013-08-01 19:36:00,67.5,62.5,29.88,SW,218,4.0,7.0,84,0.00,,BKN100,0.08,0.00,VWS V14.01,2013-08-01 23:36:00,
2013-08-01 19:41:00,67.3,63.0,29.89,West,279,0.0,4.0,86,0.00,,BKN100,0.08,0.00,VWS V14.01,2013-08-01 23:41:00,
2013-08-01 19:46:00,67.3,63.0,29.89,SW,232,2.0,7.0,86,0.00,,BKN100,0.08,0.00,VWS V14.01,2013-08-01 23:46:00,
2013-08-01 19:51:00,67.1,63.4,29.89,South,191,2.0,5.0,88,0.01,,BKN100,0.09,0.00,VWS V14.01,2013-08-01 23:51:00,
2013-08-01 19:57:00,66.8,63.5,29.89,SW,217,2.0,9.0,89,0.01,,BKN100,0.09,0.00,VWS V14.01,2013-08-01 23:57:00,
2013-08-01 20:02:00,66.6,63.3,29.89,West,261,7.0,12.0,89,0.01,,RA,0.09,0.00,VWS V14.01,2013-08-02 00:02:00,
2013-08-01 20:07:00,66.4,62.7,29.89,WSW,244,7.0,7.0,88,0.02,,RA,0.10,0.00,VWS V14.01,2013-08-02 00:07:00,
2013-08-01 20:12:00,66.3,62.6,29.89,WSW,242,6.0,10.0,88,0.02,,RA,0.10,0.00,VWS V14.01,2013-08-02 00:12:00,
2013-08-01 20:17:00,66.1,62.1,29.89,West,275,11.0,11.0,87,0.02,,RA,0.10,0.00,VWS V14.01,2013-08-02 00:17:00,
2013-08-01 20:23:00,66.0,62.0,29.89,SW,230,1.0,9.0,87,0.02,,RA,0.10,0.00,VWS V14.01,2013-08-02 00:23:00,
2013-08-01 20:28:00,65.9,61.9,29.89,WSW,252,1.0,10.0,87,0.02,,RA,0.10,0.00,VWS V14.01,2013-08-02 00:28:00,
2013-08-01 20:34:00,65.9,61.9,29.88,SW,231,6.0,8.0,87,0.02,,OVC042,0.10,0.00,VWS V14.01,2013-08-02 00:34:00,
2013-08-01 20:40:00,65.7,62.0,29.88,SSW,211,4.0,8.0,88,0.02,,OVC042,0.10,0.00,VWS V14.01,2013-08-02 00:40:00,
2013-08-01 20:45:00,65.7,62.0,29.88,SW,225,3.0,9.0,88,0.02,,OVC042,0.10,0.00,VWS V14.01,2013-08-02 00:45:00,
2013-08-01 20:50:00,65.6,62.3,29.88,SW,225,3.0,8.0,89,0.02,,OVC042,0.10,0.00,VWS V14.01,2013-08-02 00:50:00,
2013-08-01 20:55:00,65.6,62.3,29.88,WSW,248,2.0,7.0,89,0.02,,OVC042,0.10,0.00,VWS V14.01,2013-08-02 00:55:00,
2013-08-01 21:00:00,65.8,62.8,29.88,SW,225,2.0,7.0,90,0.01,,OVC042,0.10,0.00,VWS V14.01,2013-08-02 01:00:00,
2013-08-01 21:05:00,65.8,62.8,29.88,SW,225,2.0,6.0,90,0.01,,OVC042,0.10,0.00,VWS V14.01,2013-08-02 01:05:00,
2013-08-01 21:10:00,65.9,62.9,29.88,SW,225,3.0,7.0,90,0.00,,OVC042,0.10,0.00,VWS V14.01,2013-08-02 01:10:00,
2013-08-01 21:15:00,65.9,63.2,29.87,SW,225,1.0,7.0,91,0.00,,OVC042,0.10,0.00,VWS V14.01,2013-08-02 01:15:00,
2013-08-01 21:20:00,66.0,63.3,29.87,SW,225,1.0,5.0,91,0.00,,OVC042,0.10,0.00,VWS V14.01,2013-08-02 01:20:00,
2013-08-01 21:25:00,66.0,63.3,29.87,SW,225,1.0,3.0,91,0.00,,OVC042,0.10,0.00,VWS V14.01,2013-08-02 01:25:00,
2013-08-01 21:30:00,66.1,63.7,29.87,SW,225,2.0,6.0,92,0.00,,OVC042,0.10,0.00,VWS V14.01,2013-08-02 01:30:00,
2013-08-01 21:35:00,66.2,63.8,29.87,SW,225,2.0,5.0,92,0.00,,OVC042,0.10,0.00,VWS V14.01,2013-08-02 01:35:00,
2013-08-01 21:40:00,66.3,63.9,29.87,SW,225,1.0,6.0,92,0.00,,OVC042,0.10,0.00,VWS V14.01,2013-08-02 01:40:00,
2013-08-01 21:45:00,66.5,64.1,29.86,SW,225,1.0,7.0,92,0.00,,OVC042,0.10,0.00,VWS V14.01,2013-08-02 01:45:00,
2013-08-01 21:50:00,66.6,64.2,29.86,SW,225,2.0,8.0,92,0.00,,OVC042,0.10,0.00,VWS V14.01,2013-08-02 01:50:00,
2013-08-01 21:55:00,66.7,64.3,29.86,SW,225,1.0,5.0,92,0.00,,OVC042,0.10,0.00,VWS V14.01,2013-08-02 01:55:00,
2013-08-01 22:00:00,66.7,64.3,29.86,SSW,202,3.0,7.0,92,0.00,,OVC042,0.10,0.00,VWS V14.01,2013-08-02 02:00:00,
2013-08-01 22:05:00,66.8,64.7,29.86,SSW,202,2.0,7.0,93,0.00,,OVC042,0.10,0.00,VWS V14.01,2013-08-02 02:05:00,
2013-08-01 22:10:00,66.9,64.8,29.85,SW,225,3.0,8.0,93,0.00,,OVC042,0.10,0.00,VWS V14.01,2013-08-02 02:10:00,
2013-08-01 22:15:00,67.0,64.9,29.86,SSW,202,1.0,6.0,93,0.00,,OVC042,0.10,0.00,VWS V14.01,2013-08-02 02:15:00,
2013-08-01 22:28:00,67.1,65.0,29.85,SW,225,1.0,5.0,93,0.00,,OVC042,0.10,0.00,VWS V14.01,2013-08-02 02:28:00,
2013-08-01 22:33:00,67.5,65.4,29.85,SSW,208,0.0,3.0,93,0.00,,,0.10,0.00,VWS V14.01,2013-08-02 02:33:00,
2013-08-01 22:38:00,67.6,65.5,29.85,SW,214,0.0,0.0,93,0.00,,,0.10,0.00,VWS V14.01,2013-08-02 02:38:00,
2013-08-01 22:44:00,67.6,65.5,29.85,WSW,253,0.0,1.0,93,0.00,,,0.10,0.00,VWS V14.01,2013-08-02 02:44:00,
2013-08-01 22:49:00,67.7,65.6,29.85,WSW,253,0.0,0.0,93,0.00,,,0.10,0.00,VWS V14.01,2013-08-02 02:49:00,
2013-08-01 22:54:00,67.7,65.6,29.85,WSW,254,0.0,2.0,93,0.00,,,0.10,0.00,VWS V14.01,2013-08-02 02:54:00,
2013-08-01 22:59:00,67.7,65.6,29.84,SW,236,3.0,4.0,93,0.00,,,0.10,0.00,VWS V14.01,2013-08-02 02:59:00,
2013-08-01 23:05:00,67.6,65.5,29.84,SW,229,0.0,2.0,93,0.00,,,0.10,0.00,VWS V14.01,2013-08-02 03:05:00,
2013-08-01 23:10:00,67.6,65.5,29.84,SW,229,0.0,0.0,93,0.00,,,0.10,0.00,VWS V14.01,2013-08-02 03:10:00,
2013-08-01 23:15:00,67.6,65.5,29.84,SW,229,1.0,3.0,93,0.00,,,0.10,0.00,VWS V14.01,2013-08-02 03:15:00,
2013-08-01 23:20:00,67.6,65.5,29.84,SW,227,0.0,3.0,93,0.00,,,0.10,0.00,VWS V14.01,2013-08-02 03:20:00,
2013-08-01 23:25:00,67.7,65.6,29.84,SW,227,3.0,5.0,93,0.00,,,0.10,0.00,VWS V14.01,2013-08-02 03:25:00,
2013-08-01 23:30:00,67.9,65.5,29.83,SSW,198,3.0,11.0,92,0.00,,,0.10,0.00,VWS V14.01,2013-08-02 03:30:00,
2013-08-01 23:35:00,68.1,65.7,29.83,SW,217,4.0,9.0,92,0.00,,,0.10,0.00,VWS V14.01,2013-08-02 03:35:00,
2013-08-01 23:42:00,68.2,65.8,29.83,SW,217,0.0,3.0,92,0.00,,,0.10,0.00,VWS V14.01,2013-08-02 03:42:00,
2013-08-01 23:47:00,68.3,65.9,29.83,SW,215,2.0,3.0,92,0.00,,,0.10,0.00,VWS V14.01,2013-08-02 03:47:00,
2013-08-01 23:52:00,68.3,65.6,29.82,SSW,212,4.0,6.0,91,0.00,,,0.10,0.00,VWS V14.01,2013-08-02 03:52:00,
2013-08-01 23:58:00,68.3,65.6,29.83,SW,227,2.0,2.0,91,0.00,,,0.10,0.00,VWS V14.01,2013-08-02 03:58:00,